West Palm Beach, FL

8:25 AM EDT on June 29, 2017 (GMT -0400)
Palm Beach International

Weather History for KPBI - March, 2013

Change the Weather History Date:

Tuesday, March 5, 2013

  Actual Average Record
Temperature  
Mean Temperature 62 °F 70 °F  
Max Temperature 75 °F 78 °F 91 °F (1964)
Min Temperature 48 °F 61 °F 39 °F (2010)
Degree Days  
Heating Degree Days 3 1  
Month to date heating degree days 36 5  
Since 1 July heating degree days 119 210  
Cooling Degree Days 0 6  
Month to date cooling degree days 0 28  
Year to date cooling degree days 381 263  
Growing Degree Days 12 (Base 50)    
Moisture  
Dew Point 51 °F    
Average Humidity 68    
Maximum Humidity 86    
Minimum Humidity 49    
Precipitation  
Precipitation 0.00 in 0.13 in 2.07 in (1982)
Month to date precipitation T 0.63  
Year to date precipitation 3.19 6.58  
Snow  
Snow 0.00 in - - ()
Month to date snowfall 0.0  
Since 1 July snowfall 0.0  
Snow Depth 0.00 in    
Sea Level Pressure  
Sea Level Pressure 30.13 in    
Wind  
Wind Speed 7 mph (South)    
Max Wind Speed 18 mph    
Max Gust Speed 28 mph    
Visibility 10 miles    
Events      
T = Trace of Precipitation, MM = Missing Value Source: NWS Daily Summary

Daily Weather History Graph

Daily Weather History Graph

Search for Another Location

Airport or City:

Trip Planner

Search our weather history database for the weather conditions in past years. The results will help you decide how hot, cold, wet, or windy it might be!

Date:

Astronomy

Mar. 05, 2013 Rise Set
Actual Time 6:39 AM EST 6:23 PM EST
Civil Twilight 6:16 AM EST 6:47 PM EST
Nautical Twilight 5:49 AM EST 7:14 PM EST
Astronomical Twilight 5:23 AM EST 7:40 PM EST
Moon 1:26 AM EST (3/5) 12:25 PM EST (3/5)
Length of Visible Light 12h 30m
Length of Day
11h 44m
Last Quarter, 41% of the Moon is Illuminated
Mar 5
Last Quarter
Mar 11
New
Mar 19
First Quarter
Mar 27
Full
Apr 3
Last Quarter

Hourly Weather History & Observations

Time (EST) Temp. Dew Point Humidity Pressure Visibility Wind Dir Wind Speed Gust Speed Precip Events Conditions
12:53 AM 51.1 °F 45.0 °F 80% 30.17 in 10.0 mi NW 3.5 mph - N/A   Clear
2:53 AM 51.1 °F 44.1 °F 77% 30.14 in 10.0 mi Calm Calm - N/A   Partly Cloudy
3:53 AM 48.0 °F 43.0 °F 83% 30.13 in 10.0 mi Calm Calm - N/A   Clear
4:53 AM 48.9 °F 44.1 °F 83% 30.14 in 10.0 mi Calm Calm - N/A   Clear
5:53 AM 50.0 °F 44.1 °F 80% 30.16 in 10.0 mi Calm Calm - N/A   Partly Cloudy
6:53 AM 50.0 °F 45.0 °F 83% 30.17 in 10.0 mi West 3.5 mph - N/A   Partly Cloudy
7:53 AM 57.0 °F 48.9 °F 74% 30.17 in 10.0 mi NW 3.5 mph - N/A   Partly Cloudy
8:53 AM 66.0 °F 50.0 °F 56% 30.18 in 10.0 mi Calm Calm - N/A   Partly Cloudy
9:53 AM 70.0 °F 53.1 °F 55% 30.17 in 10.0 mi SSE 6.9 mph - N/A   Partly Cloudy
10:53 AM 72.0 °F 53.1 °F 51% 30.16 in 10.0 mi SE 10.4 mph 17.3 mph N/A   Scattered Clouds
11:53 AM 73.0 °F 53.1 °F 49% 30.16 in 10.0 mi South 6.9 mph - N/A   Scattered Clouds
12:53 PM 73.0 °F 54.0 °F 51% 30.14 in 10.0 mi ESE 12.7 mph - N/A   Scattered Clouds
1:53 PM 73.9 °F 53.1 °F 48% 30.10 in 10.0 mi ESE 15.0 mph - N/A   Scattered Clouds
2:53 PM 73.9 °F 53.1 °F 48% 30.10 in 10.0 mi SE 13.8 mph - N/A   Scattered Clouds
3:53 PM 73.0 °F 53.1 °F 49% 30.09 in 10.0 mi SSE 12.7 mph - N/A   Partly Cloudy
4:53 PM 72.0 °F 53.1 °F 51% 30.09 in 10.0 mi SE 12.7 mph - N/A   Partly Cloudy
5:53 PM 69.1 °F 54.0 °F 58% 30.09 in 10.0 mi SSE 16.1 mph - N/A   Partly Cloudy
6:53 PM 68.0 °F 55.0 °F 63% 30.10 in 10.0 mi South 8.1 mph - N/A   Partly Cloudy
7:53 PM 66.9 °F 55.0 °F 66% 30.09 in 10.0 mi South 8.1 mph - N/A   Partly Cloudy
8:53 PM 66.0 °F 54.0 °F 65% 30.10 in 10.0 mi South 10.4 mph - N/A   Clear
9:53 PM 64.9 °F 54.0 °F 68% 30.10 in 10.0 mi SSW 9.2 mph - N/A   Clear
10:53 PM 63.0 °F 54.0 °F 72% 30.09 in 10.0 mi SW 6.9 mph - N/A   Clear
11:53 PM 61.0 °F 55.0 °F 81% 30.09 in 10.0 mi SW 6.9 mph - N/A   Clear